| time (UTC) | temp C | wind direction | speed KPH | gust KPH | rain 1hr cm | rain 24hr cm | rain mn cm | humidity % | barometer mb |
| 20260505092919 | 17 | 213 | 1.6 | 4.8 | 0.00 | 0.00 | 0.00 | 59 | 1011.9 |
| 20260505092417 | 17 | 180 | 0.0 | 6.4 | 0.00 | 0.00 | 0.00 | 58 | 1011.7 |
| 20260505091915 | 17 | 287 | 3.2 | 4.8 | 0.00 | 0.00 | 0.00 | 59 | 1011.9 |
| 20260505091412 | 16 | 71 | 0.0 | 3.2 | 0.00 | 0.00 | 0.00 | 59 | 1011.9 |
| 20260505090910 | 16 | 156 | 0.0 | 4.8 | 0.00 | 0.00 | 0.00 | 60 | 1011.5 |
| 20260505090408 | 16 | 103 | 0.0 | 3.2 | 0.00 | 0.00 | 0.00 | 61 | 1011.7 |
| 20260505085905 | 17 | 108 | 0.0 | 1.6 | 0.00 | 0.00 | 0.00 | 59 | 1011.6 |
| 20260505085403 | 17 | 146 | 1.6 | 11.3 | 0.00 | 0.00 | 0.00 | 59 | 1011.7 |
| 20260505084901 | 17 | 214 | 0.0 | 6.4 | 0.00 | 0.00 | 0.00 | 59 | 1011.7 |
| 20260505084359 | 16 | 239 | 3.2 | 4.8 | 0.00 | 0.00 | 0.00 | 59 | 1011.6 |
| 20260505083856 | 16 | 110 | 0.0 | 1.6 | 0.00 | 0.00 | 0.00 | 60 | 1011.7 |
| 20260505083353 | 16 | 93 | 0.0 | 4.8 | 0.00 | 0.00 | 0.00 | 59 | 1011.6 |
| 20260505082849 | 16 | 201 | 0.0 | 6.4 | 0.00 | 0.00 | 0.00 | 60 | 1011.5 |
| 20260505082345 | 16 | 184 | 0.0 | 3.2 | 0.00 | 0.00 | 0.00 | 60 | 1011.4 |
| 20260505081842 | 16 | 162 | 0.0 | 4.8 | 0.00 | 0.00 | 0.00 | 60 | 1011.7 |
| 20260505081338 | 16 | 196 | 1.6 | 3.2 | 0.00 | 0.00 | 0.00 | 60 | 1011.5 |
| 20260505080835 | 16 | 188 | 0.0 | 6.4 | 0.00 | 0.00 | 0.00 | 61 | 1011.4 |
| 20260505080331 | 16 | 162 | 0.0 | 1.6 | 0.00 | 0.00 | 0.00 | 60 | 1011.2 |
| 20260505075827 | 16 | 209 | 0.0 | 3.2 | 0.00 | 0.00 | 0.00 | 60 | 1011.2 |
| 20260505075324 | 16 | 115 | 0.0 | 3.2 | 0.00 | 0.00 | 0.00 | 60 | 1011.3 |
| 20260505074821 | 16 | 138 | 0.0 | 1.6 | 0.00 | 0.00 | 0.00 | 60 | 1011.3 |
| 20260505074318 | 16 | 299 | 6.4 | 9.7 | 0.00 | 0.00 | 0.00 | 59 | 1011.2 |
| 20260505073816 | 16 | 166 | 0.0 | 1.6 | 0.00 | 0.00 | 0.00 | 60 | 1011.1 |
| 20260505073314 | 16 | 106 | 1.6 | 6.4 | 0.00 | 0.00 | 0.00 | 60 | 1011.0 |
| 20260505072810 | 16 | 209 | 1.6 | 3.2 | 0.00 | 0.00 | 0.00 | 60 | 1011.2 |
| 20260505072306 | 16 | 98 | 1.6 | 3.2 | 0.00 | 0.00 | 0.00 | 60 | 1011.2 |
| 20260505071802 | 16 | 174 | 0.0 | 3.2 | 0.00 | 0.00 | 0.00 | 60 | 1011.2 |
| 20260505071259 | 16 | 98 | 0.0 | 1.6 | 0.00 | 0.00 | 0.00 | 61 | 1011.1 |
| 20260505070757 | 16 | 150 | 0.0 | 1.6 | 0.00 | 0.00 | 0.00 | 62 | 1011.0 |
| 20260505070253 | 16 | 95 | 1.6 | 1.6 | 0.00 | 0.00 | 0.00 | 62 | 1011.0 |
| 20260505065748 | 16 | 190 | 0.0 | 1.6 | 0.00 | 0.00 | 0.00 | 62 | 1011.1 |
| 20260505065246 | 16 | 221 | 0.0 | 3.2 | 0.00 | 0.00 | 0.00 | 62 | 1011.1 |
| 20260505064743 | 16 | 202 | 0.0 | 3.2 | 0.00 | 0.00 | 0.00 | 62 | 1011.2 |
| 20260505064240 | 17 | 105 | 0.0 | 3.2 | 0.00 | 0.00 | 0.00 | 62 | 1011.0 |
| 20260505063738 | 17 | 101 | 1.6 | 4.8 | 0.00 | 0.00 | 0.00 | 62 | 1011.1 |
| 20260505063234 | 17 | 207 | 0.0 | 1.6 | 0.00 | 0.00 | 0.00 | 62 | 1011.4 |
| 20260505062730 | 17 | 233 | 1.6 | 6.4 | 0.00 | 0.00 | 0.00 | 63 | 1011.2 |
| 20260505062228 | 17 | 322 | 0.0 | 1.6 | 0.00 | 0.00 | 0.00 | 65 | 1011.3 |
| 20260505061725 | 18 | 240 | 0.0 | 4.8 | 0.00 | 0.00 | 0.00 | 59 | 1011.5 |
| 20260505061223 | 17 | 231 | 1.6 | 11.3 | 0.00 | 0.00 | 0.00 | 56 | 1011.5 |
| 20260505060720 | 17 | 266 | 1.6 | 4.8 | 0.00 | 0.00 | 0.00 | 56 | 1011.4 |
| 20260505060217 | 17 | 176 | 0.0 | 4.8 | 0.00 | 0.00 | 0.00 | 59 | 1011.3 |
| 20260505055712 | 17 | 153 | 0.0 | 4.8 | 0.00 | 0.00 | 0.00 | 58 | 1011.4 |
| 20260505055209 | 17 | 182 | 0.0 | 6.4 | 0.00 | 0.00 | 0.00 | 58 | 1011.3 |
| 20260505054706 | 17 | 179 | 0.0 | 1.6 | 0.00 | 0.00 | 0.00 | 58 | 1011.5 |
| 20260505054204 | 17 | 234 | 6.4 | 9.7 | 0.00 | 0.00 | 0.00 | 59 | 1011.3 |
| 20260505053702 | 17 | 188 | 1.6 | 3.2 | 0.00 | 0.00 | 0.00 | 59 | 1011.2 |
| 20260505053158 | 17 | 86 | 1.6 | 3.2 | 0.00 | 0.00 | 0.00 | 60 | 1011.3 |
| 20260505052655 | 17 | 127 | 0.0 | 3.2 | 0.00 | 0.00 | 0.00 | 61 | 1011.1 |
| 20260505052152 | 16 | 115 | 0.0 | 0.0 | 0.00 | 0.00 | 0.00 | 63 | 1011.4 |
| 20260505051649 | 16 | 183 | 0.0 | 4.8 | 0.00 | 0.00 | 0.00 | 62 | 1011.3 |
| 20260505051147 | 16 | 35 | 0.0 | 1.6 | 0.00 | 0.00 | 0.00 | 65 | 1011.2 |
| 20260505050645 | 15 | 105 | 0.0 | 1.6 | 0.00 | 0.00 | 0.00 | 67 | 1011.4 |
| 20260505050143 | 15 | 118 | 1.6 | 3.2 | 0.00 | 0.00 | 0.00 | 66 | 1011.4 |
| 20260505041612 | 13 | 105 | 0.0 | 0.0 | 0.00 | 0.00 | 0.00 | 75 | 1011.0 |
| 20260505041110 | 13 | 105 | 0.0 | 0.0 | 0.00 | 0.00 | 0.00 | 74 | 1011.2 |
| 20260505040607 | 13 | 105 | 0.0 | 0.0 | 0.00 | 0.00 | 0.00 | 74 | 1011.4 |
| 20260505040104 | 14 | 106 | 0.0 | 0.0 | 0.00 | 0.00 | 0.00 | 72 | 1011.2 |
| 20260505035600 | 14 | 106 | 0.0 | 0.0 | 0.00 | 0.00 | 0.00 | 72 | 1011.4 |
| 20260505035057 | 14 | 94 | 0.0 | 0.0 | 0.00 | 0.00 | 0.00 | 72 | 1011.1 |
| 20260505034553 | 14 | 94 | 0.0 | 0.0 | 0.00 | 0.00 | 0.00 | 72 | 1011.3 |
| 20260505034050 | 15 | 107 | 0.0 | 0.0 | 0.00 | 0.00 | 0.00 | 71 | 1011.1 |
| 20260505033547 | 15 | 110 | 0.0 | 0.0 | 0.00 | 0.00 | 0.00 | 70 | 1011.1 |
| 20260505033045 | 15 | 105 | 0.0 | 0.0 | 0.00 | 0.00 | 0.00 | 70 | 1011.3 |
| 20260505032543 | 15 | 111 | 0.0 | 0.0 | 0.00 | 0.00 | 0.00 | 69 | 1011.3 |
| 20260505032039 | 15 | 143 | 0.0 | 0.0 | 0.00 | 0.00 | 0.00 | 68 | 1011.4 |
| 20260505031537 | 15 | 144 | 0.0 | 0.0 | 0.00 | 0.00 | 0.00 | 68 | 1011.0 |
| 20260505031033 | 15 | 148 | 0.0 | 0.0 | 0.00 | 0.00 | 0.00 | 67 | 1011.4 |
| 20260505030530 | 15 | 152 | 0.0 | 0.0 | 0.00 | 0.00 | 0.00 | 67 | 1011.3 |
| 20260505030026 | 16 | 157 | 0.0 | 0.0 | 0.00 | 0.00 | 0.00 | 66 | 1011.4 |
| 20260505025522 | 16 | 72 | 0.0 | 0.0 | 0.00 | 0.00 | 0.00 | 66 | 1011.4 |
| 20260505025021 | 16 | 72 | 0.0 | 0.0 | 0.00 | 0.00 | 0.00 | 65 | 1011.1 |
| 20260505024517 | 15 | 100 | 0.0 | 0.0 | 0.00 | 0.00 | 0.00 | 67 | 1011.2 |
| 20260505024015 | 15 | 114 | 0.0 | 0.0 | 0.00 | 0.00 | 0.00 | 68 | 1011.1 |
| 20260505023511 | 15 | 113 | 0.0 | 0.0 | 0.00 | 0.00 | 0.00 | 69 | 1011.3 |
| 20260505023009 | 15 | 114 | 0.0 | 0.0 | 0.00 | 0.00 | 0.00 | 67 | 1011.4 |
| 20260505022507 | 15 | 113 | 0.0 | 0.0 | 0.00 | 0.00 | 0.00 | 69 | 1011.4 |
| 20260505022004 | 15 | 123 | 0.0 | 0.0 | 0.00 | 0.00 | 0.00 | 69 | 1011.4 |
| 20260505021500 | 15 | 126 | 0.0 | 0.0 | 0.00 | 0.00 | 0.00 | 69 | 1011.3 |
| 20260505020955 | 15 | 127 | 0.0 | 0.0 | 0.00 | 0.00 | 0.00 | 68 | 1011.4 |
| 20260505020451 | 15 | 126 | 0.0 | 0.0 | 0.00 | 0.00 | 0.00 | 69 | 1011.3 |
| 20260505015948 | 15 | 145 | 0.0 | 0.0 | 0.00 | 0.00 | 0.00 | 70 | 1011.4 |
| 20260505015446 | 15 | 145 | 0.0 | 0.0 | 0.00 | 0.00 | 0.00 | 69 | 1011.3 |
| 20260505014942 | 15 | 156 | 0.0 | 0.0 | 0.00 | 0.00 | 0.00 | 68 | 1011.5 |
| 20260505014439 | 15 | 162 | 0.0 | 0.0 | 0.00 | 0.00 | 0.00 | 69 | 1011.4 |
| 20260505013937 | 15 | 106 | 0.0 | 0.0 | 0.00 | 0.00 | 0.00 | 69 | 1011.4 |
| 20260505013433 | 16 | 106 | 0.0 | 0.0 | 0.00 | 0.00 | 0.00 | 68 | 1011.5 |
| 20260505012931 | 16 | 106 | 0.0 | 0.0 | 0.00 | 0.00 | 0.00 | 66 | 1011.5 |
| 20260505012429 | 16 | 107 | 0.0 | 0.0 | 0.00 | 0.00 | 0.00 | 66 | 1011.7 |
| 20260505011925 | 16 | 107 | 0.0 | 0.0 | 0.00 | 0.00 | 0.00 | 65 | 1011.5 |
| 20260505011421 | 17 | 108 | 0.0 | 1.6 | 0.00 | 0.00 | 0.00 | 63 | 1011.5 |
| 20260505010918 | 17 | 115 | 0.0 | 1.6 | 0.00 | 0.00 | 0.00 | 61 | 1011.6 |
| 20260505010414 | 17 | 151 | 0.0 | 1.6 | 0.00 | 0.00 | 0.00 | 60 | 1011.6 |
| 20260505005910 | 18 | 172 | 0.0 | 1.6 | 0.00 | 0.00 | 0.00 | 59 | 1011.5 |
| 20260505005407 | 18 | 131 | 0.0 | 0.0 | 0.00 | 0.00 | 0.00 | 58 | 1011.7 |
| 20260505004905 | 18 | 230 | 1.6 | 1.6 | 0.00 | 0.00 | 0.00 | 58 | 1011.4 |
| 20260505004401 | 18 | 118 | 0.0 | 3.2 | 0.00 | 0.00 | 0.00 | 57 | 1011.5 |
| 20260505003858 | 19 | 117 | 0.0 | 0.0 | 0.00 | 0.00 | 0.00 | 55 | 1011.3 |
| 20260505003355 | 19 | 82 | 1.6 | 9.7 | 0.00 | 0.00 | 0.00 | 54 | 1011.5 |
| 20260505002851 | 20 | 241 | 9.7 | 12.9 | 0.00 | 0.00 | 0.00 | 53 | 1011.4 |
| 20260505002348 | 20 | 266 | 6.4 | 6.4 | 0.00 | 0.00 | 0.00 | 53 | 1011.3 |
| 20260505001847 | 20 | 243 | 4.8 | 6.4 | 0.00 | 0.00 | 0.00 | 53 | 1011.3 |
| 20260505001343 | 20 | 282 | 9.7 | 11.3 | 0.00 | 0.00 | 0.00 | 51 | 1011.4 |
| 20260505000841 | 20 | 346 | 1.6 | 9.7 | 0.00 | 0.00 | 0.00 | 53 | 1011.5 |
| 20260505000338 | 20 | 213 | 4.8 | 4.8 | 0.00 | 0.00 | 0.00 | 51 | 1011.3 |
| 20260504235835 | 20 | 281 | 3.2 | 11.3 | 0.00 | 0.00 | 0.00 | 51 | 1011.2 |
| 20260504235332 | 20 | 224 | 4.8 | 14.5 | 0.00 | 0.00 | 0.00 | 52 | 1011.5 |
| 20260504234828 | 20 | 172 | 0.0 | 4.8 | 0.00 | 0.00 | 0.00 | 54 | 1011.4 |
| 20260504234326 | 20 | 202 | 1.6 | 3.2 | 0.00 | 0.00 | 0.00 | 54 | 1011.3 |
| 20260504233822 | 20 | 243 | 12.9 | 14.5 | 0.00 | 0.00 | 0.00 | 52 | 1011.3 |
| 20260504233318 | 20 | 251 | 4.8 | 4.8 | 0.00 | 0.00 | 0.00 | 54 | 1011.2 |
| 20260504232815 | 20 | 261 | 3.2 | 6.4 | 0.00 | 0.00 | 0.00 | 53 | 1011.0 |
| 20260504232312 | 21 | 265 | 6.4 | 6.4 | 0.00 | 0.00 | 0.00 | 51 | 1011.2 |
| 20260504231809 | 20 | 242 | 3.2 | 3.2 | 0.00 | 0.00 | 0.00 | 52 | 1011.0 |
| 20260504231306 | 20 | 236 | 3.2 | 3.2 | 0.00 | 0.00 | 0.00 | 55 | 1011.2 |
| 20260504230801 | 21 | 145 | 0.0 | 3.2 | 0.00 | 0.00 | 0.00 | 53 | 1010.9 |
| 20260504230300 | 20 | 212 | 0.0 | 1.6 | 0.00 | 0.00 | 0.00 | 54 | 1011.1 |
| 20260504225758 | 20 | 251 | 3.2 | 3.2 | 0.00 | 0.00 | 0.00 | 53 | 1011.4 |
| 20260504225254 | 21 | 288 | 0.0 | 3.2 | 0.00 | 0.00 | 0.00 | 52 | 1011.3 |
| 20260504224751 | 21 | 224 | 0.0 | 1.6 | 0.00 | 0.00 | 0.00 | 53 | 1011.0 |
| 20260504224249 | 21 | 259 | 4.8 | 6.4 | 0.00 | 0.00 | 0.00 | 50 | 1011.4 |
| 20260504223745 | 21 | 275 | 3.2 | 4.8 | 0.00 | 0.00 | 0.00 | 50 | 1011.3 |
| 20260504223240 | 21 | 185 | 0.0 | 1.6 | 0.00 | 0.00 | 0.00 | 51 | 1011.4 |
| 20260504222738 | 21 | 211 | 0.0 | 4.8 | 0.00 | 0.00 | 0.00 | 51 | 1011.5 |
| 20260504222234 | 22 | 248 | 6.4 | 12.9 | 0.00 | 0.00 | 0.00 | 47 | 1011.5 |
| 20260504221732 | 21 | 211 | 4.8 | 20.9 | 0.00 | 0.00 | 0.00 | 49 | 1011.6 |
| 20260504221229 | 21 | 256 | 8.0 | 14.5 | 0.00 | 0.00 | 0.00 | 50 | 1011.5 |
| 20260504220725 | 21 | 274 | 4.8 | 16.1 | 0.00 | 0.00 | 0.00 | 49 | 1011.7 |
| 20260504220223 | 22 | 282 | 8.0 | 16.1 | 0.00 | 0.00 | 0.00 | 48 | 1011.5 |
| 20260504215720 | 21 | 190 | 9.7 | 16.1 | 0.00 | 0.00 | 0.00 | 48 | 1011.3 |
| 20260504215217 | 21 | 122 | 4.8 | 9.7 | 0.00 | 0.00 | 0.00 | 49 | 1011.3 |
| 20260504214712 | 21 | 316 | 4.8 | 14.5 | 0.00 | 0.00 | 0.00 | 49 | 1011.2 |
| 20260504214209 | 22 | 297 | 11.3 | 16.1 | 0.00 | 0.00 | 0.00 | 46 | 1011.1 |
| 20260504213706 | 22 | 289 | 4.8 | 16.1 | 0.00 | 0.00 | 0.00 | 49 | 1010.9 |
| 20260504213202 | 22 | 231 | 6.4 | 22.5 | 0.00 | 0.00 | 0.00 | 49 | 1011.0 |
| 20260504212659 | 22 | 264 | 8.0 | 11.3 | 0.00 | 0.00 | 0.00 | 49 | 1011.0 |
| 20260504212155 | 21 | 276 | 4.8 | 11.3 | 0.00 | 0.00 | 0.00 | 49 | 1011.3 |
| 20260504211653 | 21 | 287 | 6.4 | 14.5 | 0.00 | 0.00 | 0.00 | 50 | 1010.9 |
| 20260504211149 | 21 | 270 | 3.2 | 9.7 | 0.00 | 0.00 | 0.00 | 49 | 1011.1 |
| 20260504210647 | 21 | 246 | 4.8 | 11.3 | 0.00 | 0.00 | 0.00 | 50 | 1011.1 |
| 20260504210143 | 21 | 279 | 3.2 | 16.1 | 0.00 | 0.00 | 0.00 | 49 | 1010.9 |
| 20260504205641 | 21 | 267 | 4.8 | 6.4 | 0.00 | 0.00 | 0.00 | 48 | 1011.0 |
| 20260504205138 | 21 | 282 | 14.5 | 16.1 | 0.00 | 0.00 | 0.00 | 48 | 1010.8 |
| 20260504204637 | 21 | 233 | 3.2 | 11.3 | 0.00 | 0.00 | 0.00 | 48 | 1011.0 |
| 20260504204135 | 21 | 266 | 9.7 | 14.5 | 0.00 | 0.00 | 0.00 | 48 | 1011.0 |
| 20260504203633 | 21 | 281 | 6.4 | 12.9 | 0.00 | 0.00 | 0.00 | 49 | 1010.9 |
| 20260504203131 | 21 | 272 | 9.7 | 12.9 | 0.00 | 0.00 | 0.00 | 47 | 1011.1 |
| 20260504202631 | 22 | 220 | 6.4 | 14.5 | 0.00 | 0.00 | 0.00 | 45 | 1011.2 |
| 20260504202128 | 22 | 266 | 6.4 | 6.4 | 0.00 | 0.00 | 0.00 | 51 | 1010.9 |
| 20260504201625 | 21 | 264 | 19.3 | 22.5 | 0.00 | 0.00 | 0.00 | 46 | 1011.2 |
| 20260504201123 | 21 | 283 | 17.7 | 22.5 | 0.00 | 0.00 | 0.00 | 46 | 1011.1 |
| 20260504200620 | 21 | 213 | 6.4 | 12.9 | 0.00 | 0.00 | 0.00 | 49 | 1011.2 |
| 20260504200116 | 21 | 203 | 6.4 | 14.5 | 0.00 | 0.00 | 0.00 | 49 | 1011.1 |
| 20260504195612 | 21 | 216 | 9.7 | 16.1 | 0.00 | 0.00 | 0.00 | 48 | 1011.2 |
| 20260504195108 | 22 | 259 | 8.0 | 12.9 | 0.00 | 0.00 | 0.00 | 47 | 1011.2 |
| 20260504194605 | 21 | 236 | 8.0 | 16.1 | 0.00 | 0.00 | 0.00 | 48 | 1011.3 |
| 20260504194101 | 22 | 109 | 4.8 | 11.3 | 0.00 | 0.00 | 0.00 | 47 | 1011.3 |
| 20260504193557 | 22 | 283 | 6.4 | 22.5 | 0.00 | 0.00 | 0.00 | 47 | 1011.3 |
| 20260504193056 | 22 | 233 | 3.2 | 14.5 | 0.00 | 0.00 | 0.00 | 47 | 1011.2 |
| 20260504192554 | 22 | 246 | 6.4 | 6.4 | 0.00 | 0.00 | 0.00 | 49 | 1011.2 |
| 20260504192052 | 22 | 230 | 8.0 | 16.1 | 0.00 | 0.00 | 0.00 | 47 | 1011.3 |
| 20260504191550 | 22 | 182 | 3.2 | 6.4 | 0.00 | 0.00 | 0.00 | 46 | 1011.4 |
| 20260504191045 | 22 | 285 | 6.4 | 9.7 | 0.00 | 0.00 | 0.00 | 48 | 1011.6 |
| 20260504190542 | 22 | 134 | 1.6 | 6.4 | 0.00 | 0.00 | 0.00 | 51 | 1011.6 |
| 20260504190038 | 21 | 208 | 1.6 | 4.8 | 0.00 | 0.00 | 0.00 | 48 | 1011.7 |
| 20260504185535 | 21 | 224 | 9.7 | 16.1 | 0.00 | 0.00 | 0.00 | 50 | 1011.7 |
| 20260504185032 | 22 | 222 | 3.2 | 9.7 | 0.00 | 0.00 | 0.00 | 47 | 1011.7 |
| 20260504184527 | 21 | 237 | 8.0 | 11.3 | 0.00 | 0.00 | 0.00 | 49 | 1011.6 |
| 20260504184023 | 20 | 59 | 4.8 | 20.9 | 0.00 | 0.00 | 0.00 | 54 | 1011.7 |
| 20260504183520 | 21 | 257 | 16.1 | 30.6 | 0.00 | 0.00 | 0.00 | 49 | 1012.0 |
| 20260504183019 | 20 | 307 | 9.7 | 22.5 | 0.00 | 0.00 | 0.00 | 52 | 1011.9 |
| 20260504182515 | 21 | 237 | 6.4 | 16.1 | 0.00 | 0.00 | 0.00 | 50 | 1012.1 |
| 20260504182012 | 20 | 249 | 6.4 | 20.9 | 0.00 | 0.00 | 0.00 | 53 | 1012.1 |
| 20260504181509 | 20 | 96 | 4.8 | 12.9 | 0.00 | 0.00 | 0.00 | 52 | 1012.0 |
| 20260504181008 | 20 | 266 | 11.3 | 14.5 | 0.00 | 0.00 | 0.00 | 51 | 1012.0 |
| 20260504180506 | 20 | 241 | 9.7 | 14.5 | 0.00 | 0.00 | 0.00 | 53 | 1012.1 |
| 20260504180004 | 20 | 221 | 14.5 | 20.9 | 0.00 | 0.00 | 0.00 | 50 | 1012.1 |
| 20260504175501 | 20 | 105 | 1.6 | 9.7 | 0.00 | 0.00 | 0.00 | 54 | 1012.2 |
| 20260504174958 | 20 | 258 | 14.5 | 20.9 | 0.00 | 0.00 | 0.00 | 53 | 1012.4 |
| 20260504174456 | 19 | 283 | 17.7 | 24.1 | 0.00 | 0.00 | 0.00 | 52 | 1012.3 |
| 20260504173953 | 20 | 177 | 9.7 | 29.0 | 0.00 | 0.00 | 0.00 | 53 | 1012.2 |
| 20260504173449 | 20 | 236 | 3.2 | 14.5 | 0.00 | 0.00 | 0.00 | 53 | 1012.3 |
| 20260504172947 | 20 | 268 | 6.4 | 22.5 | 0.00 | 0.00 | 0.00 | 54 | 1012.4 |
| 20260504172443 | 20 | 272 | 6.4 | 12.9 | 0.00 | 0.00 | 0.00 | 54 | 1012.5 |
| 20260504171939 | 20 | 237 | 8.0 | 17.7 | 0.00 | 0.00 | 0.00 | 54 | 1012.4 |
| 20260504171437 | 20 | 235 | 9.7 | 24.1 | 0.00 | 0.00 | 0.00 | 53 | 1012.5 |
| 20260504170934 | 20 | 262 | 4.8 | 14.5 | 0.00 | 0.00 | 0.00 | 52 | 1012.9 |
| 20260504170430 | 19 | 261 | 9.7 | 24.1 | 0.00 | 0.00 | 0.00 | 52 | 1012.9 |
| 20260504160349 | 18 | 253 | 6.4 | 12.9 | 0.00 | 0.00 | 0.00 | 49 | 1013.6 |
| 20260504150813 | 18 | 263 | 8.0 | 25.7 | 0.00 | 0.00 | 0.00 | 52 | 1014.4 |
| 20260504150310 | 18 | 233 | 8.0 | 12.9 | 0.00 | 0.00 | 0.00 | 50 | 1014.2 |
| 20260504141240 | 16 | 245 | 6.4 | 11.3 | 0.00 | 0.00 | 0.00 | 49 | 1014.3 |
| 20260504140736 | 16 | 292 | 11.3 | 14.5 | 0.00 | 0.00 | 0.00 | 52 | 1014.1 |
| 20260504140232 | 16 | 274 | 11.3 | 20.9 | 0.00 | 0.00 | 0.00 | 50 | 1014.2 |
| 20260504130701 | 14 | 32 | 1.6 | 6.4 | 0.00 | 0.00 | 0.00 | 57 | 1014.3 |
| 20260504130157 | 13 | 272 | 4.8 | 11.3 | 0.00 | 0.00 | 0.00 | 55 | 1014.2 |
| 20260504120121 | 13 | 269 | 1.6 | 3.2 | 0.00 | 0.00 | 0.00 | 61 | 1014.3 |
| 20260504110549 | 8 | 147 | 0.0 | 0.0 | 0.00 | 0.00 | 0.00 | 78 | 1014.7 |
| 20260504100510 | 9 | 101 | 0.0 | 0.0 | 0.00 | 0.00 | 0.00 | 71 | 1014.8 |